Tracking 31027 objects as of 19-Jul-2025
HD Live streaming from Space Station
objects crossing your sky now

STARLINK-5186

Track STARLINK-5186 now!
10-day predictions
STARLINK-5186 is classified as:


NORAD ID: 54177
Int'l Code: 2022-141W
Perigee: 546.1 km
Apogee: 547.7 km
Inclination: 53.2 °
Period: 95.4 minutes
Semi major axis: 6917 km
RCS: Unknown
Launch date: October 28, 2022
Source: United States (US)
Launch site: AIR FORCE WESTERN TEST RANGE (AFWTR)
Your satellite tracking list
OBJECT A
Track 1 satellite(s)




NASA's NSSDC Master Catalog

Two Line Element Set (TLE):
1 54177U 22141W   25199.63100744  .00000833  00000-0  70437-4 0  9994
2 54177  53.2185 334.7860 0001185  74.1214 285.9909 15.08838596150523
Source of the keplerian elements: AFSPC